Preview of NWS' New Version of Forecast
This preview is not operational and should not be used for support decisions.
Latest weather observations around

Dallas / Addison Airport (KADS)

Using International System of Units (Switch to English Units)
Date/ Time (CDT) Wind (kph) Vis. (km) Weather Sky Cond. Temp (°C) Rel. Humidity Wind Chill (°C) Heat Index (°C) Pressure Precip. (cm)
Air Dwpt 6 hour Altimeter (hPa) Sea level (hPa) 1 hr 3 hr 6 hr
Max Min
Sep 15 16:47 ENE 21 20.92 Clear CLR 36 15     29%   36 1015.9        
Sep 15 15:47 Calm 20.92 Partly Cloudy SCT070 35 16     32%   35 1016.6        
Sep 15 14:47 E 15 16.09 Clear CLR 36 16     31%   36 1017.3        
Sep 15 13:47 E 15 16.09 Clear CLR 35 16     32%   35 1018        
Sep 15 12:47 SE 13 20.92 Clear CLR 35 17     34%   36 1019        
Sep 15 11:47 ESE 9 16.09 Clear CLR 34 17     36%   35 1019.3        
Sep 15 10:47 ESE 5 16.09 Clear CLR 31 19     49%   32 1019.7        
Sep 15 09:52 Calm 16.09 Clear CLR 29 19     55%   30 1019.3        
Sep 15 08:47 ESE 5 16.09 Clear CLR 27 20     66%   28 1019.3        
Sep 15 07:47 E 9 16.09 Clear CLR 26 19     65%   26 1019        
Sep 15 06:47 E 5 20.92 Clear CLR 26 19     65%   26 1019        
Sep 15 05:47 E 11 20.92 Clear CLR 27 19     62%   28 1018.6        
Sep 15 05:35 E 9 16.09 Clear CLR 26 19     66%   26 1019        
Sep 15 05:15 E 8 16.09 Clear CLR 26 19     66%   26 1019        
Sep 15 04:55 E 8 16.09 Clear CLR 26 19     66%   26 1019.3        
Sep 15 04:35 E 8 16.09 Clear CLR 27 19     64%   28 1019.3        
Sep 15 04:15 E 5 16.09 Clear CLR 27 19     62%   28 1019.3        
Sep 15 03:55 E 9 16.09 Clear CLR 27 19     62%   28 1019.3        
Sep 15 03:35 E 9 16.09 Clear CLR 27 19     61%   28 1019.3        
Sep 15 03:15 E 11 16.09 Clear CLR 28 19     60%   29 1019.3        
Sep 15 02:55 E 9 16.09 Clear CLR 28 19     59%   29 1019.3        
Sep 15 02:35 ENE 8 16.09 Clear CLR 28 19     57%   29 1019.3        
Sep 15 02:15 E 9 16.09 Partly Cloudy SCT100 28 19     56%   29 1019.7        
Sep 15 01:55 E 8 16.09 Partly Cloudy SCT080 28 19     55%   29 1019.7        
Sep 15 01:35 E 8 16.09 Partly Cloudy SCT080 29 18     53%   30 1019.7        
Sep 15 01:15 E 9 16.09 Clear CLR 29 18     53%   29 1019.7        
Sep 15 00:55 E 8 16.09 Clear CLR 29 18     52%   30 1019.7        
Sep 15 00:35 E 8 16.09 Clear CLR 29 18     52%   30 1019.7        
Sep 15 00:15 E 9 16.09 Clear CLR 29 18     51%   30 1019.7        
Sep 14 23:55 E 8 16.09 Clear CLR 30 18     50%   30 1019.7        
Sep 14 23:35 Calm 16.09 Clear CLR 30 18     49%   30 1019.7        
Sep 14 23:15 E 5 16.09 Clear CLR 30 18     47%   31 1019.7        
Sep 14 22:55 Calm 16.09 Clear CLR 30 17     46%   31 1019.7        
Sep 14 22:35 E 5 16.09 Clear CLR 31 17     45%   31 1019.7        
Sep 14 22:15 E 8 16.09 Clear CLR 31 17     45%   31 1019.7        
Sep 14 21:47 E 11 20.92 Clear CLR 31 16     40%   31 1019        
Sep 14 20:47 E 15 16.09 Clear CLR 32 17     41%   32 1018.3        
Sep 14 19:47 E 9 16.09 Clear CLR 33 14     32%   32 1018        
Sep 14 18:47 ESE 13 16.09 Clear CLR 34 13     28%   33 1018        
Sep 14 17:47 E 15 16.09 Clear CLR 35 14     28%   34 1017.6        
Sep 14 16:47 ESE 18 20.92 Partly Cloudy SCT080 36 14     27%   35 1018        
Sep 14 15:47 SSE 9 16.09 Clear CLR 36 14     27%   35 1018.3        
Sep 14 14:47 Calm 16.09 Clear CLR 35 14     28%   34 1019        
Sep 14 13:47 ESE 9 16.09 Clear CLR 36 15     29%   36 1020        
Sep 14 12:47 ESE 9 16.09 Clear CLR 34 16     34%   34 1021        
Sep 14 11:55 ESE 13 16.09 Clear CLR 34 18     39%   35 1021.7        
Sep 14 10:47 SE 11 16.09 Clear CLR 32 18     43%   33 1022        
Sep 14 09:47 SE 15 16.09 Clear CLR 30 19     52%   31 1022        
Sep 14 08:47 E 13 16.09 Clear CLR 27 19     62%   28 1021.7        
Sep 14 07:47 E 13 16.09 Clear CLR 25 19     69%   25 1021.3        
Sep 14 06:47 E 15 16.09 Clear CLR 25 19     69%   25 1021        
Sep 14 05:53 E 9 16.09 Clear CLR 25 20     74%   25 1020.7        
Sep 14 05:35 E 8 16.09 Clear CLR 25 20     75%   25 1021        
Sep 14 05:15 E 8 16.09 Clear CLR 25 20     74%   25 1020.7        
Sep 14 04:55 E 9 16.09 Clear CLR 25 20     73%   26 1020.7        
Sep 14 04:35 E 11 16.09 Clear CLR 25 20     72%   26 1020.7        
Sep 14 04:15 E 8 16.09 Clear CLR 25 20     72%   26 1020.7        
Sep 14 03:55 E 5 16.09 Clear CLR 25 20     72%   26 1020.7        
Sep 14 03:35 E 8 16.09 Clear CLR 26 20     72%   26 1020.7        
Sep 14 03:15 E 8 16.09 Clear CLR 26 20     72%   26 1021        
Sep 14 02:55 E 9 16.09 Clear CLR 26 20     71%   26 1021        
Sep 14 02:35 ENE 9 16.09 Clear CLR 26 20     71%   26 1021.3        
Sep 14 02:15 E 11 16.09 Clear CLR 26 20     70%   26 1021.3        
Sep 14 01:55 E 11 16.09 Clear CLR 26 20     70%   26 1021.3        
Sep 14 01:35 ENE 11 16.09 Clear CLR 26 20     69%   27 1021.3        
Sep 14 01:15 ENE 11 16.09 Clear CLR 26 20     68%   28 1021        
Sep 14 00:55 ENE 13 16.09 Clear CLR 27 20     68%   28 1021        
Sep 14 00:35 ENE 11 16.09 Clear CLR 27 20     68%   28 1021        
Sep 14 00:15 ENE 9 16.09 Clear CLR 27 20     67%   28 1020.7        
Sep 13 23:55 ENE 9 16.09 Clear CLR 27 20     66%   28 1021        
Sep 13 23:35 NE 9 16.09 Clear CLR 27 20     64%   29 1021        
Sep 13 23:15 NE 8 16.09 Clear CLR 28 19     60%   29 1020.7        
Sep 13 22:55 ENE 9 16.09 Clear CLR 28 19     58%   29 1020.7        
Sep 13 22:35 ENE 9 16.09 Clear CLR 29 19     55%   30 1020.7        
Sep 13 22:15 ENE 9 16.09 Clear CLR 29 18     52%   30 1020.7        
Sep 13 21:47 ENE 11 16.09 Clear CLR 30 16     43%   30 1020        
Sep 13 20:55 ENE 8 16.09 Clear   31 15     38%   31 1019.7        
Sep 13 19:47 NE 11 16.09 Clear CLR 32 15     36%   32 1019        
Sep 13 18:47 E 8 16.09 Clear CLR 33 14     32%   32 1019        
Sep 13 17:49 E 13 16.09 Mostly Clear FEW070 33 15     34%   33 1019        
Sep 13 16:47 ENE 13 16.09 Partly Cloudy SCT075 SCT100 33 15     34%   33 1019        
Sep 13 15:47 ESE 11 16.09 Partly Cloudy SCT070 SCT090 34 15     32%   34 1019.3        
Sep 13 14:47 WSW 5 16.09 Partly Cloudy SCT065 35 14     28%   34 1020.3        
Sep 13 13:47 ESE 13 16.09 Partly Cloudy SCT065 33 16     36%   33 1021.3        
Sep 13 12:47 Calm 16.09 Partly Cloudy SCT050 SCT065 32 17     41%   32 1022        
Sep 13 11:47 SSW 9 16.09 Partly Cloudy SCT039 SCT049 31 20     52%   33 1022.4        
Sep 13 10:47 W 9 16.09 Partly Cloudy SCT070 SCT080 30 21     59%   33 1022.7        
Sep 13 09:47 WNW 11 16.09 Cloudy BKN060 OVC070 29 21     62%   31 1022.4        
Sep 13 08:47 WSW 5 16.09 Cloudy BKN060 OVC070 28 21     66%   30 1022        
Sep 13 07:47 WSW 5 16.09 Mostly Cloudy BKN100 27 21     70%   29 1021.3        
Sep 13 06:47 S 8 16.09 Partly Cloudy SCT170 27 21     70%   29 1020.3        
Sep 13 05:47 S 15 16.09 Clear CLR 27 20     66%   28 1020        
Sep 13 05:35 S 13 16.09 Clear CLR 26 21     70%   28 1020.3        
Sep 13 05:15 S 11 16.09 Clear CLR 27 21     70%   28 1020.3        
Sep 13 04:55 SSE 9 16.09 Clear CLR 27 21     70%   28 1020.3        
Sep 13 04:35 SSE 9 16.09 Clear CLR 26 21     72%   27 1020.3        
Sep 13 04:15 SSE 8 16.09 Clear CLR 26 21     74%   26 1020        
Sep 13 03:55 SSE 5 16.09 Clear CLR 26 21     71%   27 1020        
Sep 13 03:35 SSE 9 16.09 Clear CLR 26 21     71%   28 1020        
Sep 13 03:15 SSE 9 16.09 Partly Cloudy SCT060 26 20     69%   28 1020        
Sep 13 02:55 S 9 16.09 Mostly Cloudy BKN060 27 20     66%   29 1020        
Sep 13 02:35 S 5 16.09 Clear CLR 27 20     66%   29 1020        
Sep 13 02:15 S 8 16.09 Clear CLR 28 20     64%   29 1019.7        
Sep 13 01:55 SSE 9 16.09 Clear CLR 28 20     63%   29 1019.3        
Sep 13 01:35 SSE 13 16.09 Clear CLR 28 20     63%   30 1019.3        
Sep 13 01:15 SSE 18 16.09 Clear CLR 29 20     61%   30 1019        
Sep 13 00:55 S 21 16.09 Clear CLR 29 20     61%   31 1019.3        
Sep 13 00:35 SSE 13 16.09 Clear CLR 29 20     59%   31 1019.3        
Sep 13 00:15 SE 17 16.09 Clear CLR 29 20     59%   31 1019.7        
Sep 12 23:55 SE 13 16.09 Clear CLR 29 20     59%   31 1019.7        
Sep 12 23:35 SE 15 16.09 Clear CLR 29 20     56%   31 1019.3        
Sep 12 23:15 SE 13 16.09 Clear CLR 30 20     55%   31 1019.7        
Sep 12 22:55 ESE 13 16.09 Clear CLR 30 20     56%   32 1019.3        
Sep 12 22:35 ESE 9 16.09 Clear CLR 30 20     56%   32 1019.3        
Sep 12 22:15 ESE 9 16.09 Clear CLR 30 20     55%   32 1019        
Sep 12 21:47 ESE 15 16.09 Clear CLR 31 19     49%   32 1018.3        
Sep 12 20:47 ESE 15 16.09 Clear CLR 31 19     49%   32 1017.3        
Sep 12 19:47 SE 15 16.09 Clear CLR 32 18     43%   33 1016.6        
Sep 12 18:47 SSE 21 16.09 Clear CLR 33 17     38%   33 1015.9        
Sep 12 17:47 SSE 21 16.09 Mostly Clear FEW080 34 16     34%   34 1015.6        
Sep 12 16:51 SSE 21 16.09 Mostly Clear FEW080 35 17     34%   36 1016.3        
Notice The following observation data may not be complete
May 15 13:58   16.09 Mostly Cloudy BKN160          %              
May 15 04:35 S 15 16.09 Clear   24 19     74%   25 1012.5        
May 15 03:35 S 17 16.09 Partly Cloudy SCT070 SCT080 25 19     72%   25 1012.9        
Notice The following observation data may not be complete
May 15 03:15   16.09 Clear CLR          %              
May 15 02:15 SSE 17 16.09 Clear CLR 25 19     71%   26 1012.9        
May 15 01:15 SSE 18 16.09 Clear CLR 25 20     71%   26 1013.2        
May 14 17:47 SSE 22 16.09 Partly Cloudy SCT048 30 19     52%   31 1011.9        
May 14 10:47 S 21 16.09 Partly Cloudy SCT024 SCT029 28 20     62%   30 1015.9        
May 14 05:35 SSE 18 16.09 Mostly Cloudy BKN075 23 20     85%   24 1015.6        
May 14 02:55 SSE 15 16.09 Partly Cloudy SCT080 25 20     76%   25 1015.2        
May 13 22:15 SSE 18 16.09 Clear CLR 27 19     63%   28 1014.2        
May 13 14:55 SSE 24 16.09 Partly Cloudy SCT047 SCT060 31 18     46%   32 1015.2        
May 13 03:15 S 17 16.09 Clear CLR 24 20     80%   25 1015.2        
May 12 18:48   16.09 Partly Cloudy SCT060 30 17     46%   30 1012.9        
May 12 13:47 SSE 28 20.92 Mostly Cloudy BKN050 30 17     46%   30 1014.9        
May 12 09:47 S 21 16.09 Cloudy BKN022 OVC030 26 19     65%   26 1015.9        
May 12 02:55 S 24 16.09 Clear CLR 23 18     74%   23 1013.2        
May 12 00:35 S 26 16.09 Clear CLR 25 17     59%   26 1013.2        
May 11 23:55 S 24 16.09 Clear CLR 26 16     57%   26 1013.2        
May 11 19:52 S 26 16.09 Clear CLR 29 15     43%   29 1010.5        
May 11 16:02 S 30 16.09 Clear CLR 30 16     43%   30 1011.9        
May 11 11:47   16.09 Mostly Cloudy BKN039 28 16     48%   28 1014.2        
Jun 12 01:15 SSE 26 16.09 Clear CLR 26 21     76%   28 1013.6        
Jun 11 23:15 SE 13 16.09 Clear CLR 27 20     65%   29 1013.6        
Notice The following observation data may not be complete
Jun 11 22:35   16.09 Clear CLR          %              
Jun 11 22:15 SE 21 16.09 Clear   28 20     63%   29 1012.9        
Jun 11 02:15 SSE 17 16.09 Clear CLR 24 20     79%   25 1012.9        
Jun 10 12:47 S 26 16.09 Clear CLR 28 19     58%   29 1013.2        
Jun 10 04:15 SSE 15 16.09 Clear CLR 21 20     90%   22 1011.9        
Notice The following observation data may not be complete
Jun 09 00:35   16.09 Clear CLR          %              
Jun 08 18:47 ESE 15 20.92 Partly Cloudy SCT065 29 14     40%   29 1011.9        
Jun 08 04:55 E 9 16.09 Mostly Cloudy BKN050 22 16     68%   22 1015.6        
Notice The following observation data may not be complete
Jun 08 04:35   16.09 Cloudy OVC050          %              
Jun 08 03:15 E 8 16.09 Mostly Cloudy BKN050 23 16     64%   23 1015.2        
Jun 06 04:15 Calm 16.09 Clear CLR 21 20     95%     1010.8        
Notice The following observation data may not be complete
Jun 06 03:35   16.09 Clear CLR          %